Weather in Etkul

Russia / Chelyabinsk Oblast     54°49′22″N   61°35′00″E
temp.,
°C
wind,
m/s
gust,
m/s
humid.,
%
clouds,
%
prec.,
mm/h
press.,
hPa
HPBL,
m
9 march, tue
tue923:00−6sw8168155 0.0 1007434
02:00−6ssw6158772 0.0 1007480
05:00−5ssw7168686 0.0 1006564
08:00−5ssw81685100 0.0 1005612
11:00−3sw91582100 0.0 1005878
14:00−2wsw6117178 0.1 10071575
17:00−3wsw477889 0.1 1009194
20:00−8nw1278100 0.0 101121
10 march, wed
wed1023:00−9e2280100 0.0 101021
02:00−9e3486100 0.0 100960
05:00−9e3796100 0.2 1007155
08:00−7ese4696100 1.0 1004260
11:00−5ese4696100 2.3 1002361
14:00−3se5796100 1.3 999512
17:00−3s5796100 2.9 997518
20:00−9s4988100 0.6 997225
11 march, thu
thu1123:00−16sse239576 0.6 99728
02:00−18ene0110061 0.0 99820
05:00−14nnw9159299 0.4 1000633
08:00−16nnw81492100 0.3 1003664
11:00−16nnw81291100 0.6 1006743
14:00−13nnw71186100 0.1 1008913
17:00−13nw71078100 0.2 1010876
20:00−19wnw498648 0.0 1014161
12 march, fri
fri1223:00−18wnw5128674 0.1 1016581
02:00−23wnw498767 0.0 1017136
05:00−22wnw388969 0.0 1018191
08:00−24wnw348990 0.0 102042
11:00−17wnw368589 0.0 1021440
14:00−12w378392 0.0 1021777
17:00−9wnw598096 0.2 1021919
20:00−14w5108430 0.0 1023160
13 march, sat
sat1323:00−16w488615 0.0 1025136
02:00−16w48870 0.0 1026139
05:00−16wsw47870 0.0 102798
08:00−16w48840 0.0 1029124
11:00−10wnw59800 0.0 1029469
14:00−6wnw36800 0.0 1030581
17:00−6wnw35853 0.0 1030246
20:00−12nw338529 0.0 103026